Location: La Comballaz
(46.3780°N, 7.0817°E)
Time: 13:25:11
(UTC+00:00)

Cosmos 1461 - Pass Details

Date: 09 April 2020
Orbit: 507 x 659 km, 65.0° (Epoch: 28 May)

Event Time Altitude Azimuth Distance (km) Brightness Sun altitude
Rises 18:56:27 0° 324° (NW) 2,885 7.6 -8.2°
Reaches altitude 10° 18:58:42 10° 326° (NW) 1,999 6.6 -8.6°
Maximum altitude 19:03:14 79° 52° (NE) 657 3.1 -9.3°
Drops below altitude 10° 19:07:55 10° 140° (SE) 2,053 5.2 -10.0°
Enters shadow 19:07:56 10° 140° (SE) 2,055 5.2 -10.0°
